sat.trackr.live / text

‹ back to catalog

ONEWEB-0192

NORAD 48222 · 2021-031N

PAYLOAD ACTIVE UNKNOWN

§ Identity

Operator
Country
UK
Launch date
2021-04-25
Launch site
VOSTO
Launch vehicle
Mass (kg)
RCS (m²)

Purposes: comms

External: N2YO · Heavens-Above · Gunter

§ Orbital elements

Epoch: 2026-09-20T00:15:06.522624Z

Period
109.55 min
Inclination
87.8892°
Eccentricity
0.0001867
Mean motion
13.14501956 rev/d
Perigee alt
1,204.4 km
Apogee alt
1,207.2 km
Semi-major
7,583.9 km
B*
5.2242e-4
RAAN
270.7887°
Arg perigee
91.2970°
Mean anomaly
268.8373°
Rev number
26,063

§ Raw data

ONEWEB-01921 48222U 21031N   26263.01049216  .00000206  00000+0  52242-3 0  99922 48222  87.8892 270.7887 0001867  91.2970 268.8373 13.14501956260630

JSON: /api/v1/satellites/48222 · /tle

For live sub-satellite position, see the globe view (requires WebGL).

§ Visibility from observer

Set your observer location to see the next 7 days of passes ≥ 10°. The values pass through the URL so the page stays shareable.

No JS? Fill the form by hand. The geolocation button needs JavaScript.